Weather History for KIDI - October, 2012

Change the Weather History Date:

Sunday, October 7, 2012

  Actual Average Record
Temperature  
Mean Temperature 42 °F -  
Max Temperature 48 °F 63 °F 86 °F (1955)
Min Temperature 35 °F 42 °F 24 °F (1964)
Degree Days  
Heating Degree Days 24    
Moisture  
Dew Point 41 °F    
Average Humidity 95    
Maximum Humidity 100    
Minimum Humidity 76    
Precipitation  
Precipitation 0.02 in - - ()
Sea Level Pressure  
Sea Level Pressure 30.10 in    
Wind  
Wind Speed 1 mph (WNW)    
Max Wind Speed 12 mph    
Max Gust Speed 17 mph    
Visibility 10 miles    
Events      
Averages and records for this station are not official NWS values.
T = Trace of Precipitation, MM = Missing Value Source: NWS Daily Summary

Daily Weather History Graph

Daily Weather History Graph

Search for Another Location

Airport or City:

Trip Planner

Search our weather history database for the weather conditions in past years. The results will help you decide how hot, cold, wet, or windy it might be!

Date:

Astronomy

Oct. 07, 2012 Rise Set
Actual Time 7:19 AM EDT 6:47 PM EDT
Civil Twilight 6:52 AM EDT 7:15 PM EDT
Nautical Twilight 6:20 AM EDT 7:46 PM EDT
Astronomical Twilight 5:48 AM EDT 8:18 PM EDT
Moon 11:56 PM EDT (10/7) 1:56 PM EDT (10/7)
Length of Visible Light 12h 23m
Length of Day
11h 28m
Waning Gibbous, 56% of the Moon is Illuminated
Oct 7
Waning Gibbous
Oct 8
Last Quarter
Oct 15
New
Oct 21
First Quarter
Oct 29
Full

Hourly Weather History & Observations

Time (EDT) Temp. Windchill Dew Point Humidity Pressure Visibility Wind Dir Wind Speed Gust Speed Precip Events Conditions
12:15 AM 42.8 °F - 42.8 °F 100% 30.10 in 10.0 mi Calm Calm - N/A   Unknown
12:35 AM 42.8 °F - 42.8 °F 100% 30.09 in 10.0 mi Calm Calm - N/A   Unknown
12:55 AM 42.8 °F - 42.8 °F 100% 30.09 in 10.0 mi Calm Calm - N/A   Unknown
1:15 AM 42.8 °F - 42.8 °F 100% 30.09 in 10.0 mi Calm Calm - N/A   Unknown
1:35 AM 42.8 °F - 42.8 °F 100% 30.10 in 10.0 mi Calm Calm - N/A   Unknown
1:55 AM 42.8 °F - 42.8 °F 100% 30.10 in 10.0 mi Calm Calm - N/A   Unknown
2:15 AM 42.8 °F - 42.8 °F 100% 30.10 in 10.0 mi Calm Calm - N/A   Unknown
2:35 AM 42.8 °F - 42.8 °F 100% 30.09 in 10.0 mi Calm Calm - N/A   Unknown
2:55 AM 42.8 °F - 42.8 °F 100% 30.07 in 10.0 mi Calm Calm - N/A   Unknown
3:15 AM 42.8 °F - 42.8 °F 100% 30.07 in 10.0 mi Calm Calm - N/A   Unknown
3:35 AM 42.8 °F - 42.8 °F 100% 30.06 in 10.0 mi Calm Calm - N/A   Unknown
3:55 AM 42.8 °F - 42.8 °F 100% 30.07 in 10.0 mi Calm Calm - N/A   Unknown
4:15 AM 42.8 °F - 42.8 °F 100% 30.06 in 10.0 mi Calm Calm - N/A   Unknown
4:35 AM 42.8 °F - 42.8 °F 100% 30.05 in 10.0 mi Calm Calm - N/A   Unknown
4:55 AM 44.6 °F - 42.8 °F 93% 30.05 in 10.0 mi Calm Calm - N/A   Unknown
5:15 AM 44.6 °F - 42.8 °F 93% 30.05 in 10.0 mi Calm Calm - N/A   Unknown
5:35 AM 42.8 °F - 42.8 °F 100% 30.06 in 10.0 mi Calm Calm - N/A   Unknown
5:55 AM 42.8 °F 41.1 °F 42.8 °F 100% 30.07 in 10.0 mi SW 3.5 mph - N/A   Unknown
6:15 AM 42.8 °F - 42.8 °F 100% 30.08 in 10.0 mi Calm Calm - N/A   Unknown
6:35 AM 42.8 °F - 42.8 °F 100% 30.08 in 10.0 mi Calm Calm - N/A   Unknown
6:55 AM 42.8 °F 41.1 °F 42.8 °F 100% 30.09 in 10.0 mi WSW 3.5 mph - N/A   Unknown
7:15 AM 42.8 °F - 42.8 °F 100% 30.09 in 10.0 mi Calm Calm - N/A   Unknown
7:35 AM 42.8 °F - 42.8 °F 100% 30.09 in 10.0 mi Calm Calm - N/A   Unknown
7:55 AM 42.8 °F - 42.8 °F 100% 30.08 in 10.0 mi Calm Calm - N/A   Unknown
8:15 AM 42.8 °F - 42.8 °F 100% 30.09 in 10.0 mi Calm Calm - N/A   Unknown
8:35 AM 44.6 °F - 42.8 °F 93% 30.09 in 10.0 mi Calm Calm - N/A   Unknown
8:55 AM 44.6 °F - 42.8 °F 93% 30.09 in 10.0 mi Calm Calm - N/A   Unknown
9:15 AM 44.6 °F - 42.8 °F 93% 30.09 in 10.0 mi Calm Calm - N/A   Unknown
9:55 AM 44.6 °F - 42.8 °F 93% 30.10 in 10.0 mi Calm Calm - N/A   Unknown
10:15 AM 44.6 °F - 42.8 °F 93% 30.10 in 10.0 mi Calm Calm - N/A   Unknown
10:35 AM 46.4 °F - 42.8 °F 87% 30.09 in 10.0 mi Calm Calm - N/A   Unknown
10:55 AM 46.4 °F - 42.8 °F 87% 30.10 in 10.0 mi Calm Calm - N/A   Unknown
11:15 AM 46.4 °F 45.2 °F 42.8 °F 87% 30.09 in 10.0 mi SSW 3.5 mph - N/A   Unknown
11:35 AM 46.4 °F - 42.8 °F 87% 30.09 in 10.0 mi Calm Calm - N/A   Unknown
11:55 AM 46.4 °F - 42.8 °F 87% 30.08 in 10.0 mi Calm Calm - N/A   Unknown
12:15 PM 48.2 °F - 42.8 °F 82% 30.08 in 10.0 mi Calm Calm - N/A   Unknown
12:35 PM 48.2 °F - 42.8 °F 82% 30.07 in 10.0 mi Calm Calm - N/A   Unknown
12:55 PM 48.2 °F - 41.0 °F 76% 30.07 in 10.0 mi Calm Calm - N/A   Unknown
1:15 PM 48.2 °F - 41.0 °F 76% 30.07 in 10.0 mi WNW 3.5 mph - N/A   Unknown
1:35 PM 48.2 °F - 41.0 °F 76% 30.07 in 10.0 mi West 4.6 mph - N/A   Unknown
1:55 PM 48.2 °F - 42.8 °F 82% 30.06 in 10.0 mi WNW 4.6 mph - N/A   Unknown
2:15 PM 48.2 °F - 42.8 °F 82% 30.07 in 10.0 mi NW 5.8 mph - N/A   Unknown
2:35 PM 46.4 °F 42.4 °F 41.0 °F 81% 30.07 in 10.0 mi NW 8.1 mph - N/A   Unknown
2:55 PM 46.4 °F 44.3 °F 42.8 °F 87% 30.07 in 10.0 mi NW 4.6 mph - N/A   Unknown
3:15 PM 46.4 °F 41.1 °F 39.2 °F 76% 30.07 in 10.0 mi WNW 11.5 mph - N/A   Unknown
3:35 PM 46.4 °F 43.5 °F 41.0 °F 81% 30.08 in 10.0 mi WNW 5.8 mph - N/A   Unknown
3:55 PM 44.6 °F 40.2 °F 39.2 °F 81% 30.08 in 10.0 mi WNW 8.1 mph - N/A   Unknown
4:15 PM 42.8 °F 38.0 °F 42.8 °F 100% 30.09 in 7.0 mi WNW 8.1 mph 17.3 mph 0.01 in   Unknown
4:35 PM 42.8 °F 39.3 °F 42.8 °F 100% 30.09 in 10.0 mi WNW 5.8 mph - 0.02 in   Unknown
4:55 PM 42.8 °F 37.0 °F 41.0 °F 93% 30.10 in 10.0 mi NW 10.4 mph - 0.02 in   Unknown
5:15 PM 42.8 °F 38.6 °F 41.0 °F 93% 30.10 in 10.0 mi WNW 6.9 mph - N/A   Unknown
5:35 PM 42.8 °F 39.3 °F 42.8 °F 100% 30.11 in 10.0 mi WNW 5.8 mph - N/A   Unknown
5:55 PM 41.0 °F 37.1 °F 41.0 °F 100% 30.11 in 10.0 mi West 5.8 mph - N/A   Unknown
6:15 PM 41.0 °F 37.1 °F 41.0 °F 100% 30.12 in 10.0 mi West 5.8 mph - N/A   Unknown
6:35 PM 42.8 °F 38.6 °F 42.8 °F 100% 30.12 in 10.0 mi West 6.9 mph - N/A   Unknown
6:55 PM 41.0 °F 36.4 °F 41.0 °F 100% 30.13 in 10.0 mi West 6.9 mph - N/A   Unknown
7:15 PM 41.0 °F 38.0 °F 41.0 °F 100% 30.14 in 10.0 mi West 4.6 mph - N/A   Unknown
7:35 PM 41.0 °F 39.0 °F 41.0 °F 100% 30.14 in 10.0 mi WNW 3.5 mph - N/A   Unknown
7:55 PM 41.0 °F 35.2 °F 41.0 °F 100% 30.14 in 10.0 mi NW 9.2 mph - N/A   Unknown
8:15 PM 39.2 °F - 39.2 °F 100% 30.14 in 10.0 mi Calm Calm - N/A   Unknown
8:35 PM 39.2 °F 37.0 °F 39.2 °F 100% 30.15 in 10.0 mi WNW 3.5 mph - N/A   Unknown
8:55 PM 39.2 °F 37.0 °F 39.2 °F 100% 30.16 in 10.0 mi NW 3.5 mph - N/A   Unknown
9:15 PM 37.4 °F - 37.4 °F 100% 30.16 in 10.0 mi Calm Calm - N/A   Unknown
9:35 PM 37.4 °F - 37.4 °F 100% 30.17 in 10.0 mi Calm Calm - N/A   Unknown
9:55 PM 37.4 °F - 37.4 °F 100% 30.17 in 10.0 mi Calm Calm - N/A   Unknown
10:15 PM 37.4 °F - 37.4 °F 100% 30.17 in 10.0 mi Calm Calm - N/A   Unknown
10:35 PM 37.4 °F - 37.4 °F 100% 30.17 in 10.0 mi Calm Calm - N/A   Unknown
10:55 PM 37.4 °F - 37.4 °F 100% 30.17 in 7.0 mi Calm Calm - N/A   Unknown
11:15 PM 35.6 °F - 35.6 °F 100% 30.17 in 2.5 mi Calm Calm - N/A   Unknown
11:35 PM 35.6 °F - 35.6 °F 100% 30.18 in 4.0 mi Calm Calm - N/A   Unknown
11:55 PM 35.6 °F - 35.6 °F 100% 30.17 in 1.8 mi Calm Calm - N/A   Unknown